This is the latest recevied weather packets stored in our database for station/object DL6JOE-10. If no packets are shown the sender has not sent any weather packets the latest 1 day(s).
| Time | Temp. | Humidity | Pressure | Rain* | Wind** | Luminosity | Snow |
|---|---|---|---|---|---|---|---|
| 1777743376 | 28.89° C | 20% | 963.1 hPa | - | - | - | - |
| 1777742476 | 29.44° C | 20% | 963.1 hPa | - | - | - | - |
| 1777741576 | 30° C | 19% | 963.2 hPa | - | - | - | - |
| 1777740676 | 30° C | 19% | 963.4 hPa | - | - | - | - |
| 1777739776 | 30.56° C | 19% | 963.4 hPa | - | - | - | - |
| 1777738876 | 30.56° C | 19% | 963.6 hPa | - | - | - | - |
| 1777737976 | 30.56° C | 19% | 963.8 hPa | - | - | - | - |
| 1777737076 | 31.11° C | 18% | 963.9 hPa | - | - | - | - |
| 1777736176 | 30.56° C | 18% | 964.1 hPa | - | - | - | - |
| 1777735275 | 31.11° C | 18% | 964.1 hPa | - | - | - | - |
| 1777734375 | 31.67° C | 19% | 964.3 hPa | - | - | - | - |
| 1777733475 | 31.67° C | 18% | 964.5 hPa | - | - | - | - |
| 1777732575 | 32.22° C | 19% | 964.7 hPa | - | - | - | - |
| 1777731675 | 31.67° C | 20% | 964.8 hPa | - | - | - | - |
| 1777730775 | 32.22° C | 19% | 964.9 hPa | - | - | - | - |
| 1777729875 | 32.22° C | 20% | 965.1 hPa | - | - | - | - |
| 1777728975 | 31.67° C | 20% | 965.3 hPa | - | - | - | - |
| 1777728075 | 32.78° C | 20% | 965.5 hPa | - | - | - | - |
| 1777727175 | 31.67° C | 21% | 965.7 hPa | - | - | - | - |
| 1777726274 | 31.67° C | 21% | 965.8 hPa | - | - | - | - |
| 1777725374 | 31.11° C | 22% | 966 hPa | - | - | - | - |
| 1777724474 | 30.56° C | 23% | 966.2 hPa | - | - | - | - |
| 1777723574 | 30.56° C | 22% | 966.4 hPa | - | - | - | - |
| 1777722674 | 29.44° C | 24% | 966.6 hPa | - | - | - | - |
| 1777721774 | 29.44° C | 24% | 966.9 hPa | - | - | - | - |
* Rain since midnight (hover to see other rain measurements)
** Current wind speed in m/s (hover to see current wind gust speed)